Time,TemperatureF,DewpointF,PressureIn,WindDirection,WindDirectionDegrees,WindSpeedMPH,WindSpeedGustMPH,Humidity,HourlyPrecipIn,Conditions,Clouds,dailyrainin,SoftwareType,DateUTC
2013-07-19 00:01:00,74.9,74.0,30.02,WSW,247,0.0,3.0,99,0.00,,,0.00,Rainwise IP-100,2013-07-19 04:01:00,
2013-07-19 00:06:00,74.8,74.0,30.02,SW,225,2.0,2.0,99,0.00,,,0.00,Rainwise IP-100,2013-07-19 04:06:00,
2013-07-19 00:11:00,74.8,74.0,30.02,SSW,202,0.0,2.0,99,0.00,,,0.00,Rainwise IP-100,2013-07-19 04:11:00,
2013-07-19 00:16:00,74.8,74.0,30.01,South,180,1.0,2.0,99,0.00,,,0.00,Rainwise IP-100,2013-07-19 04:16:00,
2013-07-19 00:21:00,74.8,74.0,30.01,SSE,157,1.0,4.0,99,0.00,,,0.00,Rainwise IP-100,2013-07-19 04:21:00,
2013-07-19 00:26:00,74.9,75.0,30.01,SSE,157,0.0,2.0,100,0.00,,,0.00,Rainwise IP-100,2013-07-19 04:26:00,
2013-07-19 00:31:00,75.0,75.0,30.01,SSE,157,1.0,3.0,100,0.00,,,0.00,Rainwise IP-100,2013-07-19 04:31:00,
2013-07-19 00:36:00,75.1,75.0,30.01,SE,135,2.0,3.0,100,0.00,,,0.00,Rainwise IP-100,2013-07-19 04:36:00,
2013-07-19 00:41:00,75.2,75.0,30.01,South,180,2.0,3.0,100,0.00,,,0.00,Rainwise IP-100,2013-07-19 04:41:00,
2013-07-19 00:46:00,75.3,75.0,30.01,SSW,202,1.0,4.0,100,0.00,,,0.00,Rainwise IP-100,2013-07-19 04:46:00,
2013-07-19 00:51:00,75.3,75.0,30.01,SSW,202,3.0,3.0,100,0.00,,,0.00,Rainwise IP-100,2013-07-19 04:51:00,
2013-07-19 00:56:00,75.4,75.0,30.01,SSW,202,0.0,3.0,100,0.00,,,0.00,Rainwise IP-100,2013-07-19 04:56:00,
2013-07-19 01:01:00,75.5,75.0,30.01,ESE,112,0.0,3.0,100,0.00,,,0.00,Rainwise IP-100,2013-07-19 05:01:00,
2013-07-19 01:06:00,75.7,75.0,30.00,WSW,247,1.0,4.0,100,0.00,,,0.00,Rainwise IP-100,2013-07-19 05:06:00,
2013-07-19 01:11:00,75.7,75.0,30.01,WSW,247,0.0,3.0,100,0.00,,,0.00,Rainwise IP-100,2013-07-19 05:11:00,
2013-07-19 01:16:00,75.7,75.0,30.01,SSW,202,0.0,2.0,100,0.00,,,0.00,Rainwise IP-100,2013-07-19 05:16:00,
2013-07-19 01:21:00,75.8,75.0,30.01,SSW,202,2.0,2.0,100,0.00,,,0.00,Rainwise IP-100,2013-07-19 05:21:00,
2013-07-19 01:26:00,75.8,75.0,30.00,SSW,202,0.0,2.0,100,0.00,,,0.00,Rainwise IP-100,2013-07-19 05:26:00,
2013-07-19 01:31:00,75.7,75.0,30.00,SSW,202,2.0,2.0,100,0.00,,,0.00,Rainwise IP-100,2013-07-19 05:31:00,
2013-07-19 01:36:00,75.7,75.0,30.00,SSW,202,0.0,2.0,100,0.00,,,0.00,Rainwise IP-100,2013-07-19 05:36:00,
2013-07-19 01:41:00,75.7,75.0,30.00,SSE,157,2.0,2.0,100,0.00,,,0.00,Rainwise IP-100,2013-07-19 05:41:00,
2013-07-19 01:46:00,75.7,75.0,30.00,WSW,247,0.0,2.0,100,0.00,,,0.00,Rainwise IP-100,2013-07-19 05:46:00,
2013-07-19 01:51:00,75.7,75.0,30.00,SSW,202,0.0,3.0,100,0.00,,,0.00,Rainwise IP-100,2013-07-19 05:51:00,
2013-07-19 01:56:00,75.8,75.0,30.00,WSW,247,0.0,3.0,100,0.00,,,0.00,Rainwise IP-100,2013-07-19 05:56:00,
2013-07-19 02:01:00,75.8,75.0,29.99,WSW,247,0.0,3.0,100,0.00,,,0.00,Rainwise IP-100,2013-07-19 06:01:00,
2013-07-19 02:06:00,75.9,76.0,30.00,SW,225,0.0,3.0,100,0.00,,,0.00,Rainwise IP-100,2013-07-19 06:06:00,
2013-07-19 02:11:00,76.0,76.0,30.00,WSW,247,1.0,5.0,100,0.00,,,0.00,Rainwise IP-100,2013-07-19 06:11:00,
2013-07-19 02:16:00,76.1,76.0,30.00,NW,315,0.0,3.0,100,0.00,,,0.00,Rainwise IP-100,2013-07-19 06:16:00,
2013-07-19 02:21:00,76.1,76.0,30.00,SSE,157,0.0,3.0,100,0.00,,,0.00,Rainwise IP-100,2013-07-19 06:21:00,
2013-07-19 02:26:00,76.1,76.0,30.00,WSW,247,3.0,4.0,100,0.00,,,0.00,Rainwise IP-100,2013-07-19 06:26:00,
2013-07-19 02:31:00,76.1,76.0,29.99,SW,225,0.0,4.0,100,0.00,,,0.00,Rainwise IP-100,2013-07-19 06:31:00,
2013-07-19 02:36:00,76.1,76.0,29.99,North,360,3.0,3.0,100,0.00,,,0.00,Rainwise IP-100,2013-07-19 06:36:00,
2013-07-19 02:41:00,76.1,76.0,29.99,SW,225,0.0,3.0,100,0.00,,,0.00,Rainwise IP-100,2013-07-19 06:41:00,
2013-07-19 02:46:00,76.1,76.0,29.99,SW,225,2.0,2.0,100,0.00,,,0.00,Rainwise IP-100,2013-07-19 06:46:00,
2013-07-19 02:51:00,76.1,76.0,30.00,North,360,0.0,3.0,100,0.00,,,0.00,Rainwise IP-100,2013-07-19 06:51:00,
2013-07-19 02:56:00,76.1,76.0,29.99,SW,225,2.0,3.0,100,0.00,,,0.00,Rainwise IP-100,2013-07-19 06:56:00,
2013-07-19 03:01:00,76.1,76.0,29.99,WSW,247,2.0,3.0,100,0.00,,,0.00,Rainwise IP-100,2013-07-19 07:01:00,
2013-07-19 03:06:00,76.1,76.0,29.99,SW,225,3.0,4.0,100,0.00,,,0.00,Rainwise IP-100,2013-07-19 07:06:00,
2013-07-19 03:11:00,76.1,76.0,29.99,SW,225,0.0,5.0,100,0.00,,,0.00,Rainwise IP-100,2013-07-19 07:11:00,
2013-07-19 03:16:00,76.1,76.0,29.99,North,360,2.0,5.0,100,0.00,,,0.00,Rainwise IP-100,2013-07-19 07:16:00,
2013-07-19 03:21:00,76.3,76.0,29.99,NW,315,4.0,8.0,100,0.00,,,0.00,Rainwise IP-100,2013-07-19 07:21:00,
2013-07-19 03:26:00,76.5,76.0,29.99,WSW,247,2.0,8.0,100,0.00,,,0.00,Rainwise IP-100,2013-07-19 07:26:00,
2013-07-19 03:31:00,76.7,76.0,29.99,North,360,2.0,7.0,100,0.00,,,0.00,Rainwise IP-100,2013-07-19 07:31:00,
2013-07-19 03:36:00,76.9,77.0,29.99,WSW,247,3.0,8.0,100,0.00,,,0.00,Rainwise IP-100,2013-07-19 07:36:00,
2013-07-19 03:41:00,77.0,77.0,29.98,WNW,292,5.0,9.0,100,0.00,,,0.00,Rainwise IP-100,2013-07-19 07:41:00,
2013-07-19 03:46:00,77.0,77.0,29.98,WNW,292,4.0,7.0,100,0.00,,,0.00,Rainwise IP-100,2013-07-19 07:46:00,
2013-07-19 03:51:00,77.0,77.0,29.98,WNW,292,5.0,8.0,100,0.00,,,0.00,Rainwise IP-100,2013-07-19 07:51:00,
2013-07-19 03:56:00,77.0,77.0,29.98,West,270,5.0,9.0,100,0.00,,,0.00,Rainwise IP-100,2013-07-19 07:56:00,
2013-07-19 04:01:00,76.9,77.0,29.98,West,270,4.0,8.0,100,0.00,,,0.00,Rainwise IP-100,2013-07-19 08:01:00,
2013-07-19 04:06:00,76.9,77.0,29.98,WNW,292,6.0,0.0,100,0.00,,,0.00,Rainwise IP-100,2013-07-19 08:06:00,
2013-07-19 04:11:00,76.8,76.0,29.98,WNW,292,6.0,6.0,100,0.00,,,0.00,Rainwise IP-100,2013-07-19 08:11:00,
2013-07-19 04:16:00,76.7,76.0,29.98,West,270,3.0,9.0,100,0.00,,,0.00,Rainwise IP-100,2013-07-19 08:16:00,
2013-07-19 04:21:00,76.6,76.0,29.98,WNW,292,2.0,9.0,100,0.00,,,0.00,Rainwise IP-100,2013-07-19 08:21:00,
2013-07-19 04:26:00,76.6,76.0,29.98,WNW,292,4.0,7.0,100,0.00,,,0.00,Rainwise IP-100,2013-07-19 08:26:00,
2013-07-19 04:31:00,76.5,76.0,29.98,West,270,2.0,7.0,99,0.00,,,0.00,Rainwise IP-100,2013-07-19 08:31:00,
2013-07-19 04:36:00,76.4,76.0,29.98,WSW,247,5.0,6.0,99,0.00,,,0.00,Rainwise IP-100,2013-07-19 08:36:00,
2013-07-19 04:41:00,76.4,76.0,29.98,WNW,292,1.0,8.0,100,0.00,,,0.00,Rainwise IP-100,2013-07-19 08:41:00,
2013-07-19 04:46:00,76.3,76.0,29.98,WNW,292,2.0,7.0,100,0.00,,,0.00,Rainwise IP-100,2013-07-19 08:46:00,
2013-07-19 04:51:00,76.2,76.0,29.98,WSW,247,4.0,9.0,100,0.00,,,0.00,Rainwise IP-100,2013-07-19 08:51:00,
2013-07-19 04:56:00,76.2,76.0,29.98,WNW,292,4.0,7.0,100,0.00,,,0.00,Rainwise IP-100,2013-07-19 08:56:00,
2013-07-19 05:00:00,76.2,76.0,29.98,WNW,292,4.0,7.0,100,0.00,,,0.00,Rainwise IP-100,2013-07-19 09:00:00,
2013-07-19 05:05:00,76.1,76.0,29.98,WNW,292,3.0,8.0,100,0.00,,,0.00,Rainwise IP-100,2013-07-19 09:05:00,
2013-07-19 05:10:00,76.1,76.0,29.98,WSW,247,3.0,6.0,100,0.00,,,0.00,Rainwise IP-100,2013-07-19 09:10:00,
2013-07-19 05:15:00,76.1,76.0,29.98,West,270,4.0,6.0,100,0.00,,,0.00,Rainwise IP-100,2013-07-19 09:15:00,
2013-07-19 05:20:00,76.1,76.0,29.98,WSW,247,1.0,8.0,100,0.00,,,0.00,Rainwise IP-100,2013-07-19 09:20:00,
2013-07-19 05:25:00,76.1,76.0,29.98,WSW,247,3.0,7.0,100,0.00,,,0.00,Rainwise IP-100,2013-07-19 09:25:00,
2013-07-19 05:30:00,76.1,76.0,29.98,WNW,292,2.0,6.0,100,0.00,,,0.00,Rainwise IP-100,2013-07-19 09:30:00,
2013-07-19 05:35:00,76.0,76.0,29.98,WNW,292,4.0,6.0,100,0.00,,,0.00,Rainwise IP-100,2013-07-19 09:35:00,
2013-07-19 05:40:00,75.9,76.0,29.98,WSW,247,2.0,6.0,100,0.00,,,0.00,Rainwise IP-100,2013-07-19 09:40:00,
2013-07-19 05:45:00,75.9,76.0,29.98,West,270,4.0,6.0,100,0.00,,,0.00,Rainwise IP-100,2013-07-19 09:45:00,
2013-07-19 05:50:00,76.0,76.0,29.98,WSW,247,4.0,8.0,100,0.00,,,0.00,Rainwise IP-100,2013-07-19 09:50:00,
2013-07-19 05:55:00,76.0,76.0,29.98,WNW,292,3.0,8.0,100,0.00,,,0.00,Rainwise IP-100,2013-07-19 09:55:00,
2013-07-19 06:00:00,76.1,76.0,29.98,WSW,247,2.0,6.0,100,0.00,,,0.00,Rainwise IP-100,2013-07-19 10:00:00,
2013-07-19 06:05:00,76.2,76.0,29.98,West,270,0.0,0.0,100,0.00,,,0.00,Rainwise IP-100,2013-07-19 10:05:00,
2013-07-19 06:10:00,76.2,76.0,29.97,SSW,202,4.0,0.0,100,0.00,,,0.00,Rainwise IP-100,2013-07-19 10:10:00,
2013-07-19 06:15:00,76.3,76.0,29.98,WNW,292,2.0,7.0,100,0.00,,,0.00,Rainwise IP-100,2013-07-19 10:15:00,
2013-07-19 06:20:00,76.3,76.0,29.98,WNW,292,1.0,9.0,100,0.00,,,0.00,Rainwise IP-100,2013-07-19 10:20:00,
2013-07-19 06:25:00,76.3,76.0,29.98,SSE,157,3.0,9.0,100,0.00,,,0.00,Rainwise IP-100,2013-07-19 10:25:00,
2013-07-19 06:30:00,76.4,76.0,29.97,WSW,247,5.0,9.0,100,0.00,,,0.00,Rainwise IP-100,2013-07-19 10:30:00,
2013-07-19 06:35:00,76.4,76.0,29.97,SW,225,4.0,8.0,100,0.00,,,0.00,Rainwise IP-100,2013-07-19 10:35:00,
2013-07-19 06:40:00,76.5,76.0,29.97,West,270,5.0,5.0,100,0.00,,,0.00,Rainwise IP-100,2013-07-19 10:40:00,
2013-07-19 06:45:00,76.5,76.0,29.97,WSW,247,1.0,1.0,100,0.00,,,0.00,Rainwise IP-100,2013-07-19 10:45:00,
2013-07-19 06:50:00,76.5,76.0,29.97,WNW,292,2.0,7.0,100,0.00,,,0.00,Rainwise IP-100,2013-07-19 10:50:00,
2013-07-19 06:55:00,76.6,76.0,29.97,West,270,2.0,9.0,100,0.00,,,0.00,Rainwise IP-100,2013-07-19 10:55:00,
2013-07-19 07:00:00,76.7,76.0,29.97,WNW,292,2.0,0.0,100,0.00,,,0.00,Rainwise IP-100,2013-07-19 11:00:00,
2013-07-19 07:05:00,76.8,76.0,29.97,WSW,247,4.0,6.0,100,0.00,,,0.00,Rainwise IP-100,2013-07-19 11:05:00,
2013-07-19 07:10:00,76.9,76.0,29.97,WSW,247,2.0,7.0,99,0.00,,,0.00,Rainwise IP-100,2013-07-19 11:10:00,
2013-07-19 07:15:00,76.9,76.0,29.97,WSW,247,4.0,0.0,99,0.00,,,0.00,Rainwise IP-100,2013-07-19 11:15:00,
2013-07-19 07:20:00,76.9,76.0,29.96,WSW,247,8.0,8.0,99,0.00,,,0.00,Rainwise IP-100,2013-07-19 11:20:00,
2013-07-19 07:25:00,77.0,76.0,29.97,WNW,292,4.0,0.0,99,0.00,,,0.00,Rainwise IP-100,2013-07-19 11:25:00,
2013-07-19 07:30:00,77.1,76.0,29.96,WSW,247,0.0,8.0,99,0.00,,,0.00,Rainwise IP-100,2013-07-19 11:30:00,
2013-07-19 07:35:00,77.1,76.0,29.96,WNW,292,6.0,8.0,99,0.00,,,0.00,Rainwise IP-100,2013-07-19 11:35:00,
2013-07-19 07:40:00,77.2,77.0,29.97,West,270,5.0,7.0,99,0.00,,,0.00,Rainwise IP-100,2013-07-19 11:40:00,
2013-07-19 07:45:00,77.3,76.0,29.97,WSW,247,4.0,8.0,98,0.00,,,0.00,Rainwise IP-100,2013-07-19 11:45:00,
2013-07-19 07:50:00,77.4,76.0,29.98,West,270,4.0,0.0,98,0.00,,,0.00,Rainwise IP-100,2013-07-19 11:50:00,
2013-07-19 07:55:00,77.5,77.0,29.97,WSW,247,4.0,9.0,98,0.00,,,0.00,Rainwise IP-100,2013-07-19 11:55:00,
2013-07-19 08:00:00,77.6,77.0,29.97,SW,225,9.0,9.0,98,0.00,,,0.00,Rainwise IP-100,2013-07-19 12:00:00,
2013-07-19 08:05:00,77.7,77.0,29.97,WNW,292,4.0,8.0,98,0.00,,,0.00,Rainwise IP-100,2013-07-19 12:05:00,
2013-07-19 08:10:00,77.8,76.0,29.98,WNW,292,4.0,9.0,97,0.00,,,0.00,Rainwise IP-100,2013-07-19 12:10:00,
2013-07-19 08:15:00,77.9,77.0,29.97,WSW,247,2.0,6.0,97,0.00,,,0.00,Rainwise IP-100,2013-07-19 12:15:00,
2013-07-19 08:20:00,78.0,77.0,29.97,West,270,6.0,9.0,97,0.00,,,0.00,Rainwise IP-100,2013-07-19 12:20:00,
2013-07-19 08:25:00,78.1,77.0,29.97,WSW,247,7.0,7.0,97,0.00,,,0.00,Rainwise IP-100,2013-07-19 12:25:00,
2013-07-19 08:30:00,78.1,77.0,29.97,WSW,247,4.0,7.0,97,0.00,,,0.00,Rainwise IP-100,2013-07-19 12:30:00,
2013-07-19 08:35:00,78.4,77.0,29.97,WSW,247,6.0,7.0,96,0.00,,,0.00,Rainwise IP-100,2013-07-19 12:35:00,
2013-07-19 08:40:00,78.8,77.0,29.97,WNW,292,4.0,8.0,95,0.00,,,0.00,Rainwise IP-100,2013-07-19 12:40:00,
2013-07-19 08:45:00,78.7,77.0,29.97,West,270,5.0,8.0,95,0.00,,,0.00,Rainwise IP-100,2013-07-19 12:45:00,
2013-07-19 08:50:00,78.6,77.0,29.97,WNW,292,6.0,6.0,95,0.00,,,0.00,Rainwise IP-100,2013-07-19 12:50:00,
2013-07-19 08:55:00,78.7,77.0,29.96,WSW,247,1.0,1.0,95,0.00,,,0.00,Rainwise IP-100,2013-07-19 12:55:00,
2013-07-19 09:00:00,79.0,77.0,29.97,WNW,292,4.0,7.0,95,0.00,,,0.00,Rainwise IP-100,2013-07-19 13:00:00,
2013-07-19 09:05:00,79.0,77.0,29.97,SSW,202,5.0,5.0,94,0.00,,,0.00,Rainwise IP-100,2013-07-19 13:05:00,
2013-07-19 09:10:00,78.8,76.0,29.96,WNW,292,5.0,7.0,94,0.00,,,0.00,Rainwise IP-100,2013-07-19 13:10:00,
2013-07-19 09:15:00,78.9,77.0,29.96,WSW,247,4.0,0.0,94,0.00,,,0.00,Rainwise IP-100,2013-07-19 13:15:00,
2013-07-19 09:20:00,79.0,77.0,29.96,WNW,292,8.0,8.0,94,0.00,,,0.00,Rainwise IP-100,2013-07-19 13:20:00,
2013-07-19 09:25:00,79.1,77.0,29.96,WNW,292,4.0,8.0,94,0.00,,,0.00,Rainwise IP-100,2013-07-19 13:25:00,
2013-07-19 09:30:00,79.3,77.0,29.96,WNW,292,5.0,5.0,94,0.00,,,0.00,Rainwise IP-100,2013-07-19 13:30:00,
2013-07-19 09:35:00,79.7,77.0,29.96,WNW,292,0.0,7.0,94,0.00,,,0.00,Rainwise IP-100,2013-07-19 13:35:00,
2013-07-19 09:40:00,80.3,78.0,29.96,WNW,292,6.0,7.0,93,0.00,,,0.00,Rainwise IP-100,2013-07-19 13:40:00,
2013-07-19 09:45:00,80.5,78.0,29.96,WSW,247,7.0,7.0,92,0.00,,,0.00,Rainwise IP-100,2013-07-19 13:45:00,
2013-07-19 09:50:00,80.5,77.0,29.96,WSW,247,5.0,5.0,91,0.00,,,0.00,Rainwise IP-100,2013-07-19 13:50:00,
2013-07-19 09:55:00,80.4,77.0,29.96,WNW,292,6.0,6.0,91,0.00,,,0.00,Rainwise IP-100,2013-07-19 13:55:00,
2013-07-19 10:00:00,80.2,77.0,29.96,WNW,292,4.0,4.0,91,0.00,,,0.00,Rainwise IP-100,2013-07-19 14:00:00,
2013-07-19 10:05:00,80.2,77.0,29.96,SSW,202,0.0,7.0,91,0.00,,,0.00,Rainwise IP-100,2013-07-19 14:05:00,
2013-07-19 10:10:00,80.1,77.0,29.96,WSW,247,4.0,4.0,91,0.00,,,0.00,Rainwise IP-100,2013-07-19 14:10:00,
2013-07-19 10:15:00,80.1,77.0,29.96,WSW,247,7.0,0.0,91,0.00,,,0.00,Rainwise IP-100,2013-07-19 14:15:00,
2013-07-19 10:20:00,80.5,77.0,29.95,WSW,247,8.0,0.0,91,0.00,,,0.00,Rainwise IP-100,2013-07-19 14:20:00,
2013-07-19 10:25:00,80.5,77.0,29.96,WSW,247,1.0,9.0,91,0.00,,,0.00,Rainwise IP-100,2013-07-19 14:25:00,
2013-07-19 10:30:00,80.4,77.0,29.97,West,270,3.0,3.0,91,0.00,,,0.00,Rainwise IP-100,2013-07-19 14:30:00,
2013-07-19 10:35:00,80.4,77.0,29.96,SSW,202,5.0,0.0,91,0.00,,,0.00,Rainwise IP-100,2013-07-19 14:35:00,
2013-07-19 10:40:00,80.3,77.0,29.96,WNW,292,6.0,6.0,91,0.00,,,0.00,Rainwise IP-100,2013-07-19 14:40:00,
2013-07-19 10:45:00,80.2,77.0,29.96,WSW,247,8.0,0.0,90,0.00,,,0.00,Rainwise IP-100,2013-07-19 14:45:00,
2013-07-19 10:50:00,80.3,77.0,29.96,WNW,292,5.0,5.0,90,0.00,,,0.00,Rainwise IP-100,2013-07-19 14:50:00,
2013-07-19 10:55:00,80.5,77.0,29.96,SSW,202,3.0,9.0,90,0.00,,,0.00,Rainwise IP-100,2013-07-19 14:55:00,
2013-07-19 11:00:00,80.7,77.0,29.95,WNW,292,6.0,6.0,90,0.00,,,0.00,Rainwise IP-100,2013-07-19 15:00:00,
2013-07-19 11:05:00,80.9,77.0,29.95,SW,225,2.0,8.0,89,0.00,,,0.00,Rainwise IP-100,2013-07-19 15:05:00,
2013-07-19 11:10:00,80.9,77.0,29.95,WSW,247,4.0,0.0,89,0.00,,,0.00,Rainwise IP-100,2013-07-19 15:10:00,
2013-07-19 11:15:00,81.1,77.0,29.96,SW,225,5.0,8.0,89,0.00,,,0.00,Rainwise IP-100,2013-07-19 15:15:00,
2013-07-19 11:20:00,81.4,77.0,29.95,WNW,292,4.0,4.0,89,0.00,,,0.00,Rainwise IP-100,2013-07-19 15:20:00,
2013-07-19 11:25:00,81.7,77.0,29.95,WNW,292,2.0,2.0,88,0.00,,,0.00,Rainwise IP-100,2013-07-19 15:25:00,
2013-07-19 11:30:00,81.3,77.0,29.95,SSW,202,4.0,4.0,88,0.00,,,0.00,Rainwise IP-100,2013-07-19 15:30:00,
2013-07-19 11:35:00,81.1,77.0,29.95,WSW,247,5.0,5.0,88,0.00,,,0.00,Rainwise IP-100,2013-07-19 15:35:00,
2013-07-19 11:40:00,81.0,77.0,29.95,WNW,292,0.0,7.0,88,0.00,,,0.00,Rainwise IP-100,2013-07-19 15:40:00,
2013-07-19 11:45:00,81.0,77.0,29.95,West,270,0.0,5.0,88,0.00,,,0.00,Rainwise IP-100,2013-07-19 15:45:00,
2013-07-19 11:50:00,80.9,77.0,29.95,WNW,292,6.0,6.0,88,0.00,,,0.00,Rainwise IP-100,2013-07-19 15:50:00,
2013-07-19 11:55:00,80.7,76.0,29.95,SSW,202,6.0,0.0,88,0.00,,,0.00,Rainwise IP-100,2013-07-19 15:55:00,
2013-07-19 12:00:00,80.8,77.0,29.95,ESE,112,5.0,9.0,89,0.00,,,0.00,Rainwise IP-100,2013-07-19 16:00:00,
2013-07-19 12:05:00,80.9,77.0,29.94,WNW,292,4.0,4.0,89,0.00,,,0.00,Rainwise IP-100,2013-07-19 16:05:00,
2013-07-19 12:10:00,81.2,77.0,29.94,WSW,247,5.0,5.0,88,0.00,,,0.00,Rainwise IP-100,2013-07-19 16:10:00,
2013-07-19 12:15:00,81.2,77.0,29.94,WNW,292,0.0,9.0,88,0.00,,,0.00,Rainwise IP-100,2013-07-19 16:15:00,
2013-07-19 12:20:00,81.3,77.0,29.94,WSW,247,3.0,0.0,88,0.00,,,0.00,Rainwise IP-100,2013-07-19 16:20:00,
2013-07-19 12:25:00,81.5,77.0,29.93,East,90,1.0,1.0,87,0.00,,,0.00,Rainwise IP-100,2013-07-19 16:25:00,
2013-07-19 12:30:00,81.8,77.0,29.93,WNW,292,3.0,8.0,87,0.00,,,0.00,Rainwise IP-100,2013-07-19 16:30:00,
2013-07-19 12:35:00,82.0,77.0,29.93,SSW,202,5.0,0.0,87,0.00,,,0.00,Rainwise IP-100,2013-07-19 16:35:00,
2013-07-19 12:40:00,82.0,77.0,29.93,WSW,247,6.0,0.0,87,0.00,,,0.00,Rainwise IP-100,2013-07-19 16:40:00,
2013-07-19 12:45:00,82.0,77.0,29.93,SSW,202,8.0,0.0,86,0.00,,,0.00,Rainwise IP-100,2013-07-19 16:45:00,
2013-07-19 12:50:00,82.0,77.0,29.93,WNW,292,4.0,4.0,86,0.00,,,0.00,Rainwise IP-100,2013-07-19 16:50:00,
2013-07-19 12:55:00,82.0,77.0,29.93,WNW,292,2.0,9.0,86,0.00,,,0.00,Rainwise IP-100,2013-07-19 16:55:00,
2013-07-19 13:00:00,82.1,77.0,29.92,WNW,292,8.0,0.0,86,0.00,,,0.00,Rainwise IP-100,2013-07-19 17:00:00,
2013-07-19 13:05:00,82.0,77.0,29.93,WNW,292,7.0,7.0,86,0.00,,,0.00,Rainwise IP-100,2013-07-19 17:05:00,
2013-07-19 13:10:00,81.6,77.0,29.93,WSW,247,8.0,8.0,86,0.00,,,0.00,Rainwise IP-100,2013-07-19 17:10:00,
2013-07-19 13:15:00,81.5,77.0,29.92,West,270,8.0,8.0,87,0.00,,,0.00,Rainwise IP-100,2013-07-19 17:15:00,
2013-07-19 13:20:00,81.7,77.0,29.92,NW,315,9.0,9.0,87,0.00,,,0.00,Rainwise IP-100,2013-07-19 17:20:00,
2013-07-19 13:25:00,81.9,77.0,29.92,WNW,292,6.0,6.0,87,0.00,,,0.00,Rainwise IP-100,2013-07-19 17:25:00,
2013-07-19 13:30:00,82.0,77.0,29.91,WNW,292,5.0,6.0,87,0.00,,,0.00,Rainwise IP-100,2013-07-19 17:30:00,
2013-07-19 13:35:00,82.0,77.0,29.90,WNW,292,0.0,4.0,87,0.00,,,0.00,Rainwise IP-100,2013-07-19 17:35:00,
2013-07-19 13:40:00,82.2,78.0,29.91,WNW,292,5.0,7.0,87,0.00,,,0.00,Rainwise IP-100,2013-07-19 17:40:00,
2013-07-19 13:45:00,82.3,78.0,29.91,SSW,202,0.0,0.0,87,0.00,,,0.00,Rainwise IP-100,2013-07-19 17:45:00,
2013-07-19 13:50:00,82.3,78.0,29.91,WNW,292,8.0,8.0,87,0.00,,,0.00,Rainwise IP-100,2013-07-19 17:50:00,
2013-07-19 13:55:00,82.2,78.0,29.90,WNW,292,9.0,9.0,87,0.00,,,0.00,Rainwise IP-100,2013-07-19 17:55:00,
2013-07-19 14:00:00,82.3,78.0,29.91,SW,225,4.0,4.0,87,0.00,,,0.00,Rainwise IP-100,2013-07-19 18:00:00,
2013-07-19 14:05:00,82.4,78.0,29.90,WSW,247,4.0,4.0,87,0.00,,,0.00,Rainwise IP-100,2013-07-19 18:05:00,
2013-07-19 14:10:00,82.6,78.0,29.90,NNW,337,6.0,6.0,87,0.00,,,0.00,Rainwise IP-100,2013-07-19 18:10:00,
2013-07-19 14:15:00,82.7,78.0,29.90,WSW,247,4.0,4.0,87,0.00,,,0.00,Rainwise IP-100,2013-07-19 18:15:00,
2013-07-19 14:20:00,82.7,78.0,29.90,West,270,7.0,7.0,87,0.00,,,0.00,Rainwise IP-100,2013-07-19 18:20:00,
2013-07-19 14:25:00,82.6,78.0,29.90,WNW,292,0.0,4.0,87,0.00,,,0.00,Rainwise IP-100,2013-07-19 18:25:00,
2013-07-19 14:30:00,82.5,78.0,29.90,SW,225,6.0,7.0,87,0.00,,,0.00,Rainwise IP-100,2013-07-19 18:30:00,
2013-07-19 14:35:00,82.7,78.0,29.90,WNW,292,8.0,8.0,87,0.00,,,0.00,Rainwise IP-100,2013-07-19 18:35:00,
2013-07-19 14:40:00,82.9,78.0,29.90,WNW,292,6.0,9.0,87,0.00,,,0.00,Rainwise IP-100,2013-07-19 18:40:00,
2013-07-19 14:45:00,82.6,78.0,29.89,West,270,6.0,8.0,87,0.00,,,0.00,Rainwise IP-100,2013-07-19 18:45:00,
2013-07-19 14:50:00,82.4,78.0,29.89,WNW,292,8.0,8.0,87,0.00,,,0.00,Rainwise IP-100,2013-07-19 18:50:00,
2013-07-19 14:55:00,82.4,78.0,29.89,West,270,7.0,8.0,87,0.00,,,0.00,Rainwise IP-100,2013-07-19 18:55:00,
2013-07-19 15:00:00,82.4,78.0,29.88,WNW,292,7.0,8.0,87,0.00,,,0.00,Rainwise IP-100,2013-07-19 19:00:00,
2013-07-19 15:05:00,82.4,78.0,29.88,NNE,22,8.0,8.0,87,0.00,,,0.00,Rainwise IP-100,2013-07-19 19:05:00,
2013-07-19 15:10:00,82.8,78.0,29.88,WNW,292,0.0,3.0,87,0.00,,,0.00,Rainwise IP-100,2013-07-19 19:10:00,
2013-07-19 15:15:00,83.1,78.0,29.88,NW,315,8.0,8.0,87,0.00,,,0.00,Rainwise IP-100,2013-07-19 19:15:00,
2013-07-19 15:20:00,83.0,78.0,29.88,WNW,292,6.0,6.0,87,0.00,,,0.00,Rainwise IP-100,2013-07-19 19:20:00,
2013-07-19 15:25:00,83.1,78.0,29.88,WSW,247,0.0,4.0,86,0.00,,,0.00,Rainwise IP-100,2013-07-19 19:25:00,
2013-07-19 15:30:00,83.2,78.0,29.88,WSW,247,7.0,7.0,86,0.00,,,0.00,Rainwise IP-100,2013-07-19 19:30:00,
2013-07-19 15:35:00,83.1,78.0,29.88,WNW,292,2.0,5.0,86,0.00,,,0.00,Rainwise IP-100,2013-07-19 19:35:00,
2013-07-19 15:40:00,83.1,78.0,29.88,WNW,292,0.0,4.0,86,0.00,,,0.00,Rainwise IP-100,2013-07-19 19:40:00,
2013-07-19 15:45:00,83.1,78.0,29.87,WSW,247,7.0,7.0,86,0.00,,,0.00,Rainwise IP-100,2013-07-19 19:45:00,
2013-07-19 15:50:00,83.2,78.0,29.87,WSW,247,6.0,6.0,85,0.00,,,0.00,Rainwise IP-100,2013-07-19 19:50:00,
2013-07-19 15:55:00,82.9,78.0,29.87,West,270,4.0,7.0,85,0.00,,,0.00,Rainwise IP-100,2013-07-19 19:55:00,
2013-07-19 16:00:00,82.6,77.0,29.86,WNW,292,8.0,8.0,86,0.00,,,0.00,Rainwise IP-100,2013-07-19 20:00:00,
2013-07-19 16:05:00,82.7,78.0,29.86,WNW,292,4.0,4.0,86,0.00,,,0.00,Rainwise IP-100,2013-07-19 20:05:00,
2013-07-19 16:10:00,83.1,78.0,29.86,WSW,247,0.0,6.0,85,0.00,,,0.00,Rainwise IP-100,2013-07-19 20:10:00,
2013-07-19 16:15:00,83.6,78.0,29.86,WNW,292,5.0,5.0,84,0.00,,,0.00,Rainwise IP-100,2013-07-19 20:15:00,
2013-07-19 16:20:00,84.2,78.0,29.85,West,270,0.0,5.0,83,0.00,,,0.00,Rainwise IP-100,2013-07-19 20:20:00,
2013-07-19 16:25:00,84.4,78.0,29.85,WNW,292,4.0,4.0,82,0.00,,,0.00,Rainwise IP-100,2013-07-19 20:25:00,
2013-07-19 16:30:00,84.6,78.0,29.86,SSE,157,7.0,7.0,82,0.00,,,0.00,Rainwise IP-100,2013-07-19 20:30:00,
2013-07-19 16:35:00,84.8,78.0,29.86,NNE,22,2.0,6.0,81,0.00,,,0.00,Rainwise IP-100,2013-07-19 20:35:00,
2013-07-19 16:40:00,85.0,78.0,29.85,WNW,292,5.0,5.0,80,0.00,,,0.00,Rainwise IP-100,2013-07-19 20:40:00,
2013-07-19 16:45:00,85.0,78.0,29.85,WNW,292,6.0,6.0,80,0.00,,,0.00,Rainwise IP-100,2013-07-19 20:45:00,
2013-07-19 16:50:00,84.9,78.0,29.85,WSW,247,4.0,4.0,80,0.00,,,0.00,Rainwise IP-100,2013-07-19 20:50:00,
2013-07-19 16:55:00,84.7,77.0,29.85,West,270,9.0,9.0,80,0.00,,,0.00,Rainwise IP-100,2013-07-19 20:55:00,
2013-07-19 17:00:00,84.8,77.0,29.85,SSW,202,7.0,7.0,80,0.00,,,0.00,Rainwise IP-100,2013-07-19 21:00:00,
2013-07-19 17:05:00,84.6,77.0,29.85,WNW,292,0.0,6.0,80,0.00,,,0.00,Rainwise IP-100,2013-07-19 21:05:00,
2013-07-19 17:10:00,84.1,77.0,29.85,WSW,247,5.0,5.0,80,0.00,,,0.00,Rainwise IP-100,2013-07-19 21:10:00,
2013-07-19 17:15:00,83.9,77.0,29.85,West,270,3.0,0.0,81,0.00,,,0.00,Rainwise IP-100,2013-07-19 21:15:00,
2013-07-19 17:20:00,83.8,77.0,29.85,SW,225,7.0,7.0,82,0.00,,,0.00,Rainwise IP-100,2013-07-19 21:20:00,
2013-07-19 17:25:00,83.6,77.0,29.84,WNW,292,5.0,5.0,83,0.00,,,0.00,Rainwise IP-100,2013-07-19 21:25:00,
2013-07-19 17:30:00,83.5,77.0,29.84,WNW,292,0.0,3.0,83,0.00,,,0.00,Rainwise IP-100,2013-07-19 21:30:00,
2013-07-19 17:35:00,83.2,78.0,29.84,WNW,292,0.0,7.0,84,0.00,,,0.00,Rainwise IP-100,2013-07-19 21:35:00,
2013-07-19 17:40:00,82.8,77.0,29.84,WSW,247,5.0,8.0,84,0.00,,,0.00,Rainwise IP-100,2013-07-19 21:40:00,
2013-07-19 17:45:00,82.5,77.0,29.84,West,270,4.0,7.0,85,0.00,,,0.00,Rainwise IP-100,2013-07-19 21:45:00,
2013-07-19 17:50:00,82.4,77.0,29.83,WNW,292,5.0,5.0,85,0.00,,,0.00,Rainwise IP-100,2013-07-19 21:50:00,
2013-07-19 17:55:00,82.6,77.0,29.83,WNW,292,8.0,8.0,86,0.00,,,0.00,Rainwise IP-100,2013-07-19 21:55:00,
2013-07-19 18:00:00,82.8,77.0,29.83,WNW,292,6.0,9.0,85,0.00,,,0.00,Rainwise IP-100,2013-07-19 22:00:00,
2013-07-19 18:05:00,82.9,78.0,29.83,WSW,247,4.0,0.0,85,0.00,,,0.00,Rainwise IP-100,2013-07-19 22:05:00,
2013-07-19 18:10:00,82.8,77.0,29.84,SW,225,6.0,6.0,85,0.00,,,0.00,Rainwise IP-100,2013-07-19 22:10:00,
2013-07-19 18:15:00,82.8,77.0,29.83,WNW,292,7.0,7.0,84,0.00,,,0.00,Rainwise IP-100,2013-07-19 22:15:00,
2013-07-19 18:20:00,82.9,77.0,29.83,WSW,247,5.0,5.0,84,0.00,,,0.00,Rainwise IP-100,2013-07-19 22:20:00,
2013-07-19 18:25:00,82.9,77.0,29.84,SSW,202,5.0,5.0,84,0.00,,,0.00,Rainwise IP-100,2013-07-19 22:25:00,
2013-07-19 18:30:00,83.0,77.0,29.84,SW,225,6.0,6.0,83,0.00,,,0.00,Rainwise IP-100,2013-07-19 22:30:00,
2013-07-19 18:35:00,83.0,77.0,29.84,NNW,337,1.0,7.0,83,0.00,,,0.00,Rainwise IP-100,2013-07-19 22:35:00,
2013-07-19 18:40:00,82.7,77.0,29.84,ENE,67,5.0,5.0,83,0.00,,,0.00,Rainwise IP-100,2013-07-19 22:40:00,
2013-07-19 18:45:00,82.6,76.0,29.84,SSW,202,6.0,6.0,83,0.00,,,0.00,Rainwise IP-100,2013-07-19 22:45:00,
2013-07-19 18:50:00,82.1,76.0,29.84,WNW,292,0.0,1.0,83,0.00,,,0.00,Rainwise IP-100,2013-07-19 22:50:00,
2013-07-19 18:55:00,81.8,76.0,29.85,WSW,247,5.0,5.0,84,0.00,,,0.00,Rainwise IP-100,2013-07-19 22:55:00,
2013-07-19 19:00:00,81.5,76.0,29.85,West,270,6.0,6.0,84,0.00,,,0.00,Rainwise IP-100,2013-07-19 23:00:00,
2013-07-19 19:05:00,81.1,76.0,29.84,WNW,292,0.0,5.0,85,0.00,,,0.00,Rainwise IP-100,2013-07-19 23:05:00,
2013-07-19 19:10:00,80.7,76.0,29.85,WNW,292,7.0,7.0,86,0.00,,,0.00,Rainwise IP-100,2013-07-19 23:10:00,
2013-07-19 19:15:00,80.4,76.0,29.84,WSW,247,9.0,9.0,86,0.00,,,0.00,Rainwise IP-100,2013-07-19 23:15:00,
2013-07-19 19:20:00,80.0,76.0,29.85,WSW,247,5.0,8.0,87,0.00,,,0.00,Rainwise IP-100,2013-07-19 23:20:00,
2013-07-19 19:25:00,79.9,76.0,29.85,WNW,292,0.0,8.0,88,0.00,,,0.00,Rainwise IP-100,2013-07-19 23:25:00,
2013-07-19 19:30:00,79.8,76.0,29.84,WNW,292,7.0,7.0,88,0.00,,,0.00,Rainwise IP-100,2013-07-19 23:30:00,
2013-07-19 19:35:00,79.7,76.0,29.85,WNW,292,9.0,9.0,88,0.00,,,0.00,Rainwise IP-100,2013-07-19 23:35:00,
2013-07-19 19:40:00,79.5,76.0,29.85,West,270,0.0,3.0,89,0.00,,,0.00,Rainwise IP-100,2013-07-19 23:40:00,
2013-07-19 19:45:00,79.4,76.0,29.85,WSW,247,6.0,6.0,89,0.00,,,0.00,Rainwise IP-100,2013-07-19 23:45:00,
2013-07-19 19:50:00,79.4,76.0,29.85,WSW,247,1.0,1.0,89,0.00,,,0.00,Rainwise IP-100,2013-07-19 23:50:00,
2013-07-19 19:55:00,79.3,76.0,29.85,WNW,292,9.0,9.0,89,0.00,,,0.00,Rainwise IP-100,2013-07-19 23:55:00,
2013-07-19 20:00:00,79.2,76.0,29.86,WNW,292,5.0,9.0,90,0.00,,,0.00,Rainwise IP-100,2013-07-20 00:00:00,
2013-07-19 20:05:00,79.1,76.0,29.85,WNW,292,5.0,5.0,90,0.00,,,0.00,Rainwise IP-100,2013-07-20 00:05:00,
2013-07-19 20:10:00,79.0,76.0,29.85,WNW,292,9.0,9.0,90,0.00,,,0.00,Rainwise IP-100,2013-07-20 00:10:00,
2013-07-19 20:15:00,78.9,76.0,29.85,WNW,292,3.0,0.0,90,0.00,,,0.00,Rainwise IP-100,2013-07-20 00:15:00,
2013-07-19 20:20:00,78.7,75.0,29.85,West,270,4.0,7.0,90,0.00,,,0.00,Rainwise IP-100,2013-07-20 00:20:00,
2013-07-19 20:25:00,78.5,76.0,29.86,WNW,292,4.0,4.0,91,0.00,,,0.00,Rainwise IP-100,2013-07-20 00:25:00,
2013-07-19 20:30:00,78.4,75.0,29.86,WNW,292,5.0,5.0,91,0.00,,,0.00,Rainwise IP-100,2013-07-20 00:30:00,
2013-07-19 20:35:00,78.3,75.0,29.85,West,270,0.0,5.0,91,0.00,,,0.00,Rainwise IP-100,2013-07-20 00:35:00,
2013-07-19 20:40:00,78.2,75.0,29.86,WSW,247,9.0,9.0,91,0.00,,,0.00,Rainwise IP-100,2013-07-20 00:40:00,
2013-07-19 20:45:00,78.1,75.0,29.87,WNW,292,5.0,5.0,91,0.00,,,0.00,Rainwise IP-100,2013-07-20 00:45:00,
2013-07-19 20:50:00,78.1,75.0,29.87,WNW,292,6.0,0.0,91,0.00,,,0.00,Rainwise IP-100,2013-07-20 00:50:00,
2013-07-19 20:55:00,78.1,75.0,29.87,WNW,292,5.0,0.0,92,0.00,,,0.00,Rainwise IP-100,2013-07-20 00:55:00,
2013-07-19 21:00:00,78.0,75.0,29.87,SSW,202,3.0,3.0,92,0.00,,,0.00,Rainwise IP-100,2013-07-20 01:00:00,
2013-07-19 21:05:00,78.0,75.0,29.87,West,270,8.0,9.0,92,0.00,,,0.00,Rainwise IP-100,2013-07-20 01:05:00,
2013-07-19 21:10:00,77.9,75.0,29.87,West,270,8.0,8.0,92,0.00,,,0.00,Rainwise IP-100,2013-07-20 01:10:00,
2013-07-19 21:15:00,77.8,75.0,29.87,WSW,247,9.0,9.0,92,0.00,,,0.00,Rainwise IP-100,2013-07-20 01:15:00,
2013-07-19 21:20:00,77.7,75.0,29.87,WSW,247,7.0,8.0,92,0.00,,,0.00,Rainwise IP-100,2013-07-20 01:20:00,
2013-07-19 21:25:00,77.7,75.0,29.87,WNW,292,4.0,4.0,92,0.00,,,0.00,Rainwise IP-100,2013-07-20 01:25:00,
2013-07-19 21:30:00,77.6,75.0,29.87,SSE,157,3.0,0.0,92,0.00,,,0.00,Rainwise IP-100,2013-07-20 01:30:00,
2013-07-19 21:35:00,77.5,75.0,29.87,WNW,292,5.0,8.0,92,0.00,,,0.00,Rainwise IP-100,2013-07-20 01:35:00,
2013-07-19 21:40:00,77.4,75.0,29.87,West,270,4.0,4.0,93,0.00,,,0.00,Rainwise IP-100,2013-07-20 01:40:00,
2013-07-19 21:45:00,77.3,75.0,29.88,West,270,5.0,7.0,93,0.00,,,0.00,Rainwise IP-100,2013-07-20 01:45:00,
2013-07-19 21:50:00,77.2,75.0,29.88,WNW,292,4.0,4.0,93,0.00,,,0.00,Rainwise IP-100,2013-07-20 01:50:00,
2013-07-19 21:55:00,77.2,75.0,29.88,WNW,292,7.0,7.0,93,0.00,,,0.00,Rainwise IP-100,2013-07-20 01:55:00,
2013-07-19 22:00:00,77.2,75.0,29.87,WNW,292,4.0,9.0,93,0.00,,,0.00,Rainwise IP-100,2013-07-20 02:00:00,
2013-07-19 22:05:00,77.2,75.0,29.87,WNW,292,9.0,0.0,94,0.00,,,0.00,Rainwise IP-100,2013-07-20 02:05:00,
2013-07-19 22:10:00,77.1,75.0,29.88,WNW,292,1.0,3.0,94,0.00,,,0.00,Rainwise IP-100,2013-07-20 02:10:00,
2013-07-19 22:15:00,77.1,75.0,29.88,WNW,292,5.0,5.0,94,0.00,,,0.00,Rainwise IP-100,2013-07-20 02:15:00,
2013-07-19 22:20:00,77.1,75.0,29.88,WNW,292,3.0,3.0,94,0.00,,,0.00,Rainwise IP-100,2013-07-20 02:20:00,
2013-07-19 22:25:00,77.1,75.0,29.88,WSW,247,4.0,9.0,94,0.00,,,0.00,Rainwise IP-100,2013-07-20 02:25:00,
2013-07-19 22:30:00,77.2,75.0,29.88,SSW,202,7.0,7.0,94,0.00,,,0.00,Rainwise IP-100,2013-07-20 02:30:00,
2013-07-19 22:35:00,77.2,75.0,29.88,WNW,292,0.0,2.0,94,0.00,,,0.00,Rainwise IP-100,2013-07-20 02:35:00,
2013-07-19 22:40:00,77.1,75.0,29.88,WNW,292,5.0,5.0,94,0.00,,,0.00,Rainwise IP-100,2013-07-20 02:40:00,
2013-07-19 22:45:00,77.0,75.0,29.87,WNW,292,7.0,9.0,94,0.00,,,0.00,Rainwise IP-100,2013-07-20 02:45:00,
2013-07-19 22:50:00,77.0,75.0,29.87,WSW,247,3.0,0.0,94,0.00,,,0.00,Rainwise IP-100,2013-07-20 02:50:00,
2013-07-19 22:55:00,76.9,75.0,29.87,WNW,292,4.0,4.0,95,0.00,,,0.00,Rainwise IP-100,2013-07-20 02:55:00,
2013-07-19 23:00:00,76.8,75.0,29.87,WNW,292,5.0,5.0,95,0.00,,,0.00,Rainwise IP-100,2013-07-20 03:00:00,
2013-07-19 23:05:00,76.8,75.0,29.86,West,270,5.0,5.0,95,0.00,,,0.00,Rainwise IP-100,2013-07-20 03:05:00,
2013-07-19 23:10:00,76.7,75.0,29.87,WSW,247,7.0,7.0,95,0.00,,,0.00,Rainwise IP-100,2013-07-20 03:10:00,
2013-07-19 23:15:00,76.7,75.0,29.86,WNW,292,0.0,3.0,95,0.00,,,0.00,Rainwise IP-100,2013-07-20 03:15:00,
2013-07-19 23:20:00,76.8,75.0,29.87,WNW,292,8.0,8.0,95,0.00,,,0.00,Rainwise IP-100,2013-07-20 03:20:00,
2013-07-19 23:25:00,76.8,75.0,29.86,WSW,247,6.0,6.0,95,0.00,,,0.00,Rainwise IP-100,2013-07-20 03:25:00,
2013-07-19 23:30:00,76.7,75.0,29.86,NNW,337,8.0,8.0,95,0.00,,,0.00,Rainwise IP-100,2013-07-20 03:30:00,
2013-07-19 23:35:00,76.7,75.0,29.86,WNW,292,7.0,9.0,95,0.00,,,0.00,Rainwise IP-100,2013-07-20 03:35:00,
2013-07-19 23:40:00,76.6,74.0,29.86,SW,225,3.0,3.0,95,0.00,,,0.00,Rainwise IP-100,2013-07-20 03:40:00,
2013-07-19 23:45:00,76.6,74.0,29.86,West,270,3.0,0.0,95,0.00,,,0.00,Rainwise IP-100,2013-07-20 03:45:00,
2013-07-19 23:50:00,76.6,74.0,29.85,WSW,247,2.0,2.0,95,0.00,,,0.00,Rainwise IP-100,2013-07-20 03:50:00,
2013-07-19 23:55:00,76.5,74.0,29.85,WNW,292,7.0,8.0,95,0.00,,,0.00,Rainwise IP-100,2013-07-20 03:55:00,